Armorel, AR

10:56 PM CDT on August 24, 2016 (GMT -0500)
Blytheville Municipal

Weather History for KHKA - December, 2013

Change the Weather History Date:

Friday, December 13, 2013

  Actual Average Record
Temperature  
Mean Temperature 34 °F -  
Max Temperature 42 °F 50 °F 73 °F (2015)
Min Temperature 26 °F 35 °F 2 °F (1962)
Degree Days  
Heating Degree Days 31    
Moisture  
Dew Point 27 °F    
Average Humidity 76    
Maximum Humidity 93    
Minimum Humidity 49    
Precipitation  
Precipitation 0.28 in - - ()
Sea Level Pressure  
Sea Level Pressure 30.18 in    
Wind  
Wind Speed 6 mph (SSE)    
Max Wind Speed 10 mph    
Max Gust Speed -    
Visibility 10 miles    
Events Rain    
Averages and records for this station are not official NWS values.
T = Trace of Precipitation, MM = Missing Value Source: NWS Daily Summary

Daily Weather History Graph

Daily Weather History Graph

Search for Another Location

Airport or City:

Trip Planner

Search our weather history database for the weather conditions in past years. The results will help you decide how hot, cold, wet, or windy it might be!

Date:

Astronomy

Dec. 13, 2013 Rise Set
Actual Time 7:01 AM CST 4:46 PM CST
Civil Twilight 6:32 AM CST 5:14 PM CST
Nautical Twilight 6:00 AM CST 5:46 PM CST
Astronomical Twilight 5:29 AM CST 6:17 PM CST
Moon 2:24 PM CST (12/13) 3:28 AM CST (12/13)
Length of Visible Light 10h 41m
Length of Day
9h 44m
Waxing Gibbous, 88% of the Moon is Illuminated
Dec 13
Waxing Gibbous
Dec 17
Full
Dec 25
Last Quarter
Jan 1
New
Jan 7
First Quarter

Hourly Weather History & Observations

Time (CST) Temp. Windchill Dew Point Humidity Pressure Visibility Wind Dir Wind Speed Gust Speed Precip Events Conditions
12:53 AM 27.0 °F 19.5 °F 21.9 °F 81% 30.37 in 10.0 mi SSE 6.9 mph - N/A   Clear
1:53 AM 27.0 °F 20.5 °F 23.0 °F 85% 30.36 in 10.0 mi SSW 5.8 mph - N/A   Clear
2:53 AM 26.1 °F 21.9 °F 21.9 °F 84% 30.35 in 10.0 mi South 3.5 mph - N/A   Clear
3:53 AM 26.1 °F 17.6 °F 21.0 °F 81% 30.33 in 10.0 mi SSE 8.1 mph - N/A   Clear
4:53 AM 27.0 °F 20.5 °F 21.0 °F 78% 30.32 in 10.0 mi South 5.8 mph - N/A   Clear
5:53 AM 27.0 °F 21.6 °F 21.0 °F 78% 30.31 in 10.0 mi SSE 4.6 mph - N/A   Clear
6:53 AM 28.9 °F 21.9 °F 21.9 °F 75% 30.30 in 10.0 mi SSE 6.9 mph - N/A   Clear
7:53 AM 30.0 °F 22.4 °F 21.9 °F 72% 30.29 in 10.0 mi South 8.1 mph - N/A   Clear
8:53 AM 32.0 °F 28.7 °F 24.1 °F 73% 30.32 in 10.0 mi South 3.5 mph - N/A   Scattered Clouds
9:53 AM 34.0 °F 27.2 °F 25.0 °F 70% 30.30 in 10.0 mi SSE 8.1 mph - N/A   Clear
10:53 AM 37.9 °F 30.9 °F 26.1 °F 62% 30.26 in 10.0 mi South 10.4 mph - N/A   Overcast
11:53 AM 39.0 °F 35.7 °F 26.1 °F 60% 30.22 in 10.0 mi South 4.6 mph - 0.00 in Rain Light Rain
12:53 PM 39.9 °F 35.8 °F 26.1 °F 58% 30.16 in 10.0 mi SE 5.8 mph - 0.00 in   Clear
1:53 PM 42.1 °F 39.2 °F 24.1 °F 49% 30.15 in 10.0 mi South 4.6 mph - N/A   Clear
2:53 PM 41.0 °F 38.0 °F 27.0 °F 57% 30.15 in 10.0 mi South 4.6 mph - N/A   Scattered Clouds
3:53 PM 39.0 °F 34.8 °F 28.0 °F 65% 30.13 in 10.0 mi SE 5.8 mph - N/A   Overcast
4:53 PM 36.0 °F 29.0 °F 30.0 °F 79% 30.08 in 10.0 mi East 9.2 mph - 0.00 in Rain Light Rain
5:53 PM 37.0 °F 34.5 °F 32.0 °F 82% 30.10 in 10.0 mi SE 3.5 mph - 0.00 in Rain Light Rain
6:53 PM 37.0 °F 32.4 °F 32.0 °F 82% 30.11 in 10.0 mi SSE 5.8 mph - 0.01 in Rain Light Rain
7:53 PM 37.0 °F 29.8 °F 33.1 °F 86% 30.06 in 10.0 mi SE 10.4 mph - 0.03 in Rain Light Rain
8:53 PM 37.9 °F 32.7 °F 33.1 °F 83% 30.04 in 10.0 mi SSE 6.9 mph - 0.07 in Rain Light Rain
9:53 PM 37.0 °F 30.4 °F 34.0 °F 89% 29.99 in 10.0 mi SE 9.2 mph - 0.07 in Rain Light Rain
10:53 PM 37.0 °F 32.4 °F 34.0 °F 89% 29.97 in 7.0 mi SE 5.8 mph - 0.05 in Rain Light Rain
11:36 PM 37.4 °F 31.4 °F 35.6 °F 93% 29.95 in 7.0 mi ESE 8.1 mph - 0.03 in Rain Rain
11:53 PM 37.0 °F 33.3 °F 35.1 °F 93% 29.95 in 7.0 mi East 4.6 mph - 0.05 in Rain Rain